![]() |
EMODnet Physics ERDDAP
Easier access to scientific data |
log in|
Brought to you by EMODnet Physics |
| Dataset Title: | NDBC - Collection of dew point temperature (DEWT) TimeSeries - IN SITU MultiPointTimeSeriesObservation
|
| Institution: | NDBC (Dataset ID: TS_DEWT_NDBC) |
| Information: | Summary
| License
| FGDC
| ISO 19115
| Metadata
| Background
| Subset
| Data Access Form
| Make a graph
|
| Name | Last modified | Size | Description | |
|---|---|---|---|---|
| Parent Directory | - | - | ||
| SHPF1_TS_DEWT_012004.nc | 27-Oct-2024 20:29 | 586786 | ||
| SHPF1_TS_DEWT_012005.nc | 27-Oct-2024 20:29 | 587242 | ||
| SHPF1_TS_DEWT_012006.nc | 27-Oct-2024 20:29 | 587063 | ||
| SHPF1_TS_DEWT_012007.nc | 27-Oct-2024 20:30 | 438214 | ||
| SHPF1_TS_DEWT_012009.nc | 27-Oct-2024 20:30 | 587322 | ||
| SHPF1_TS_DEWT_012010.nc | 27-Oct-2024 20:30 | 587318 | ||
| SHPF1_TS_DEWT_012011.nc | 27-Oct-2024 20:30 | 429665 | ||
| SHPF1_TS_DEWT_012012.nc | 27-Oct-2024 20:30 | 429822 | ||
| SHPF1_TS_DEWT_012013.nc | 27-Oct-2024 20:30 | 429358 | ||
| SHPF1_TS_DEWT_012014.nc | 27-Oct-2024 20:30 | 430278 | ||
| SHPF1_TS_DEWT_012015.nc | 27-Oct-2024 20:30 | 440258 | ||
| SHPF1_TS_DEWT_012016.nc | 27-Oct-2024 20:30 | 588120 | ||
| SHPF1_TS_DEWT_012017.nc | 27-Oct-2024 20:30 | 588117 | ||
| SHPF1_TS_DEWT_012018.nc | 27-Oct-2024 20:30 | 588153 | ||
| SHPF1_TS_DEWT_012019.nc | 27-Oct-2024 20:30 | 588000 | ||
| SHPF1_TS_DEWT_012020.nc | 27-Oct-2024 20:31 | 588040 | ||
| SHPF1_TS_DEWT_012021.nc | 27-Oct-2024 20:31 | 588084 | ||
| SHPF1_TS_DEWT_012022.nc | 27-Oct-2024 20:31 | 438085 | ||
| SHPF1_TS_DEWT_012023.nc | 27-Oct-2024 20:31 | 588083 | ||
| SHPF1_TS_DEWT_012024.nc | 27-Oct-2024 20:31 | 440321 | ||
| SHPF1_TS_DEWT_022004.nc | 27-Oct-2024 20:31 | 587845 | ||
| SHPF1_TS_DEWT_022005.nc | 27-Oct-2024 20:31 | 440002 | ||
| SHPF1_TS_DEWT_022006.nc | 27-Oct-2024 20:31 | 587812 | ||
| SHPF1_TS_DEWT_022009.nc | 27-Oct-2024 20:31 | 588189 | ||
| SHPF1_TS_DEWT_022010.nc | 27-Oct-2024 20:31 | 588100 | ||
| SHPF1_TS_DEWT_022011.nc | 27-Oct-2024 20:31 | 440099 | ||
| SHPF1_TS_DEWT_022012.nc | 27-Oct-2024 20:31 | 427633 | ||
| SHPF1_TS_DEWT_022013.nc | 27-Oct-2024 20:31 | 428735 | ||
| SHPF1_TS_DEWT_022014.nc | 27-Oct-2024 20:31 | 428659 | ||
| SHPF1_TS_DEWT_022015.nc | 27-Oct-2024 20:32 | 437815 | ||
| SHPF1_TS_DEWT_022016.nc | 27-Oct-2024 20:32 | 438126 | ||
| SHPF1_TS_DEWT_022017.nc | 27-Oct-2024 20:32 | 438726 | ||
| SHPF1_TS_DEWT_022018.nc | 27-Oct-2024 20:32 | 438776 | ||
| SHPF1_TS_DEWT_022019.nc | 27-Oct-2024 20:32 | 439604 | ||
| SHPF1_TS_DEWT_022020.nc | 27-Oct-2024 20:32 | 438748 | ||
| SHPF1_TS_DEWT_022021.nc | 27-Oct-2024 20:32 | 438639 | ||
| SHPF1_TS_DEWT_022022.nc | 27-Oct-2024 20:32 | 438592 | ||
| SHPF1_TS_DEWT_022023.nc | 27-Oct-2024 20:32 | 438963 | ||
| SHPF1_TS_DEWT_022024.nc | 16-Sep-2024 16:51 | 438559 | ||
| SHPF1_TS_DEWT_032004.nc | 27-Oct-2024 20:32 | 438319 | ||
| SHPF1_TS_DEWT_032006.nc | 27-Oct-2024 20:32 | 438756 | ||
| SHPF1_TS_DEWT_032009.nc | 27-Oct-2024 20:32 | 438856 | ||
| SHPF1_TS_DEWT_032010.nc | 27-Oct-2024 20:32 | 438254 | ||
| SHPF1_TS_DEWT_032011.nc | 27-Oct-2024 20:32 | 438795 | ||
| SHPF1_TS_DEWT_032012.nc | 27-Oct-2024 20:32 | 438804 | ||
| SHPF1_TS_DEWT_032013.nc | 27-Oct-2024 20:33 | 419599 | ||
| SHPF1_TS_DEWT_032014.nc | 27-Oct-2024 20:33 | 428230 | ||
| SHPF1_TS_DEWT_032015.nc | 27-Oct-2024 20:33 | 429783 | ||
| SHPF1_TS_DEWT_032016.nc | 27-Oct-2024 20:33 | 429740 | ||
| SHPF1_TS_DEWT_032017.nc | 27-Oct-2024 20:33 | 587951 | ||
| SHPF1_TS_DEWT_032018.nc | 27-Oct-2024 20:33 | 440244 | ||
| SHPF1_TS_DEWT_032020.nc | 27-Oct-2024 20:33 | 588142 | ||
| SHPF1_TS_DEWT_032021.nc | 27-Oct-2024 20:33 | 587778 | ||
| SHPF1_TS_DEWT_032022.nc | 27-Oct-2024 20:33 | 439732 | ||
| SHPF1_TS_DEWT_032023.nc | 27-Oct-2024 20:33 | 440043 | ||
| SHPF1_TS_DEWT_042004.nc | 27-Oct-2024 20:33 | 587980 | ||
| SHPF1_TS_DEWT_042006.nc | 27-Oct-2024 20:33 | 439871 | ||
| SHPF1_TS_DEWT_042009.nc | 27-Oct-2024 20:34 | 587864 | ||
| SHPF1_TS_DEWT_042010.nc | 27-Oct-2024 20:34 | 587869 | ||
| SHPF1_TS_DEWT_042011.nc | 27-Oct-2024 20:34 | 428302 | ||
| SHPF1_TS_DEWT_042012.nc | 27-Oct-2024 20:34 | 440098 | ||
| SHPF1_TS_DEWT_042013.nc | 27-Oct-2024 20:34 | 434771 | ||
| SHPF1_TS_DEWT_042014.nc | 27-Oct-2024 20:34 | 588163 | ||
| SHPF1_TS_DEWT_042015.nc | 27-Oct-2024 20:34 | 588214 | ||
| SHPF1_TS_DEWT_042016.nc | 27-Oct-2024 20:34 | 429474 | ||
| SHPF1_TS_DEWT_042017.nc | 27-Oct-2024 20:34 | 425650 | ||
| SHPF1_TS_DEWT_042018.nc | 27-Oct-2024 20:34 | 429448 | ||
| SHPF1_TS_DEWT_042019.nc | 27-Oct-2024 20:34 | 440150 | ||
| SHPF1_TS_DEWT_042020.nc | 27-Oct-2024 20:34 | 439715 | ||
| SHPF1_TS_DEWT_042021.nc | 27-Oct-2024 20:34 | 440080 | ||
| SHPF1_TS_DEWT_042022.nc | 27-Oct-2024 20:34 | 440094 | ||
| SHPF1_TS_DEWT_042023.nc | 27-Oct-2024 20:34 | 440139 | ||
| SHPF1_TS_DEWT_052004.nc | 27-Oct-2024 20:34 | 440025 | ||
| SHPF1_TS_DEWT_052006.nc | 27-Oct-2024 20:34 | 439515 | ||
| SHPF1_TS_DEWT_052009.nc | 27-Oct-2024 20:35 | 439834 | ||
| SHPF1_TS_DEWT_052010.nc | 27-Oct-2024 20:35 | 439751 | ||
| SHPF1_TS_DEWT_052011.nc | 27-Oct-2024 20:35 | 439919 | ||
| SHPF1_TS_DEWT_052012.nc | 27-Oct-2024 20:35 | 439925 | ||
| SHPF1_TS_DEWT_052013.nc | 27-Oct-2024 20:35 | 438432 | ||
| SHPF1_TS_DEWT_052014.nc | 27-Oct-2024 20:35 | 438855 | ||
| SHPF1_TS_DEWT_052015.nc | 27-Oct-2024 20:35 | 439686 | ||
| SHPF1_TS_DEWT_052016.nc | 27-Oct-2024 20:35 | 440035 | ||
| SHPF1_TS_DEWT_052017.nc | 27-Oct-2024 20:35 | 440096 | ||
| SHPF1_TS_DEWT_052018.nc | 27-Oct-2024 20:35 | 429612 | ||
| SHPF1_TS_DEWT_052019.nc | 27-Oct-2024 20:35 | 428016 | ||
| SHPF1_TS_DEWT_052020.nc | 27-Oct-2024 20:35 | 429833 | ||
| SHPF1_TS_DEWT_052021.nc | 27-Oct-2024 20:35 | 587959 | ||
| SHPF1_TS_DEWT_052022.nc | 27-Oct-2024 20:35 | 587874 | ||
| SHPF1_TS_DEWT_052023.nc | 27-Oct-2024 20:35 | 588177 | ||
| SHPF1_TS_DEWT_062004.nc | 27-Oct-2024 20:35 | 588115 | ||
| SHPF1_TS_DEWT_062005.nc | 27-Oct-2024 20:36 | 440076 | ||
| SHPF1_TS_DEWT_062006.nc | 27-Oct-2024 20:36 | 433081 | ||
| SHPF1_TS_DEWT_062009.nc | 27-Oct-2024 20:36 | 587974 | ||
| SHPF1_TS_DEWT_062010.nc | 27-Oct-2024 20:36 | 588057 | ||
| SHPF1_TS_DEWT_062011.nc | 27-Oct-2024 20:36 | 440113 | ||
| SHPF1_TS_DEWT_062012.nc | 27-Oct-2024 20:36 | 587929 | ||
| SHPF1_TS_DEWT_062013.nc | 27-Oct-2024 20:36 | 587849 | ||
| SHPF1_TS_DEWT_062014.nc | 27-Oct-2024 20:36 | 587999 | ||
| SHPF1_TS_DEWT_062015.nc | 27-Oct-2024 20:36 | 440320 | ||
| SHPF1_TS_DEWT_062016.nc | 27-Oct-2024 20:36 | 587936 | ||
| SHPF1_TS_DEWT_062017.nc | 27-Oct-2024 20:36 | 437552 | ||
| SHPF1_TS_DEWT_062018.nc | 27-Oct-2024 20:36 | 588210 | ||
| SHPF1_TS_DEWT_062019.nc | 27-Oct-2024 20:37 | 429495 | ||
| SHPF1_TS_DEWT_062020.nc | 27-Oct-2024 20:37 | 428815 | ||
| SHPF1_TS_DEWT_062021.nc | 27-Oct-2024 20:37 | 429331 | ||
| SHPF1_TS_DEWT_062023.nc | 27-Oct-2024 20:37 | 439510 | ||
| SHPF1_TS_DEWT_072004.nc | 27-Oct-2024 20:37 | 440113 | ||
| SHPF1_TS_DEWT_072005.nc | 27-Oct-2024 20:37 | 440014 | ||
| SHPF1_TS_DEWT_072006.nc | 27-Oct-2024 20:37 | 440152 | ||
| SHPF1_TS_DEWT_072008.nc | 27-Oct-2024 20:37 | 435358 | ||
| SHPF1_TS_DEWT_072009.nc | 27-Oct-2024 20:37 | 440061 | ||
| SHPF1_TS_DEWT_072010.nc | 27-Oct-2024 20:37 | 439939 | ||
| SHPF1_TS_DEWT_072011.nc | 27-Oct-2024 20:37 | 438397 | ||
| SHPF1_TS_DEWT_072012.nc | 27-Oct-2024 20:37 | 439778 | ||
| SHPF1_TS_DEWT_072013.nc | 27-Oct-2024 20:37 | 439971 | ||
| SHPF1_TS_DEWT_072014.nc | 27-Oct-2024 20:37 | 439707 | ||
| SHPF1_TS_DEWT_072015.nc | 27-Oct-2024 20:38 | 439818 | ||
| SHPF1_TS_DEWT_072016.nc | 27-Oct-2024 20:38 | 439900 | ||
| SHPF1_TS_DEWT_072017.nc | 27-Oct-2024 20:38 | 438934 | ||
| SHPF1_TS_DEWT_072018.nc | 27-Oct-2024 20:38 | 440150 | ||
| SHPF1_TS_DEWT_072019.nc | 27-Oct-2024 20:38 | 429833 | ||
| SHPF1_TS_DEWT_072020.nc | 27-Oct-2024 20:38 | 422497 | ||
| SHPF1_TS_DEWT_072021.nc | 27-Oct-2024 20:38 | 425868 | ||
| SHPF1_TS_DEWT_072022.nc | 27-Oct-2024 20:38 | 438218 | ||
| SHPF1_TS_DEWT_072023.nc | 27-Oct-2024 20:38 | 588009 | ||
| SHPF1_TS_DEWT_082004.nc | 27-Oct-2024 20:38 | 588014 | ||
| SHPF1_TS_DEWT_082005.nc | 27-Oct-2024 20:38 | 439817 | ||
| SHPF1_TS_DEWT_082006.nc | 27-Oct-2024 20:38 | 588194 | ||
| SHPF1_TS_DEWT_082008.nc | 27-Oct-2024 20:38 | 436745 | ||
| SHPF1_TS_DEWT_082009.nc | 27-Oct-2024 20:39 | 587984 | ||
| SHPF1_TS_DEWT_082010.nc | 27-Oct-2024 20:39 | 588067 | ||
| SHPF1_TS_DEWT_082011.nc | 27-Oct-2024 20:39 | 439688 | ||
| SHPF1_TS_DEWT_082012.nc | 27-Oct-2024 20:39 | 440241 | ||
| SHPF1_TS_DEWT_082013.nc | 27-Oct-2024 20:39 | 588017 | ||
| SHPF1_TS_DEWT_082014.nc | 27-Oct-2024 20:39 | 587780 | ||
| SHPF1_TS_DEWT_082015.nc | 27-Oct-2024 20:39 | 439731 | ||
| SHPF1_TS_DEWT_082016.nc | 27-Oct-2024 20:39 | 588001 | ||
| SHPF1_TS_DEWT_082017.nc | 27-Oct-2024 20:39 | 588171 | ||
| SHPF1_TS_DEWT_082018.nc | 27-Oct-2024 20:39 | 588189 | ||
| SHPF1_TS_DEWT_082019.nc | 27-Oct-2024 20:39 | 428710 | ||
| SHPF1_TS_DEWT_082020.nc | 27-Oct-2024 20:39 | 429808 | ||
| SHPF1_TS_DEWT_082021.nc | 27-Oct-2024 20:39 | 429765 | ||
| SHPF1_TS_DEWT_082022.nc | 27-Oct-2024 20:39 | 588077 | ||
| SHPF1_TS_DEWT_082023.nc | 27-Oct-2024 20:39 | 587801 | ||
| SHPF1_TS_DEWT_082024.nc | 09-Jan-2025 12:46 | 435915 | ||
| SHPF1_TS_DEWT_092004.nc | 27-Oct-2024 20:40 | 587939 | ||
| SHPF1_TS_DEWT_092005.nc | 27-Oct-2024 20:40 | 588029 | ||
| SHPF1_TS_DEWT_092006.nc | 27-Oct-2024 20:40 | 433788 | ||
| SHPF1_TS_DEWT_092008.nc | 27-Oct-2024 20:40 | 440302 | ||
| SHPF1_TS_DEWT_092009.nc | 27-Oct-2024 20:40 | 587732 | ||
| SHPF1_TS_DEWT_092010.nc | 27-Oct-2024 20:40 | 439447 | ||
| SHPF1_TS_DEWT_092011.nc | 27-Oct-2024 20:40 | 431604 | ||
| SHPF1_TS_DEWT_092012.nc | 27-Oct-2024 20:40 | 438413 | ||
| SHPF1_TS_DEWT_092013.nc | 27-Oct-2024 20:40 | 440298 | ||
| SHPF1_TS_DEWT_092014.nc | 27-Oct-2024 20:40 | 439202 | ||
| SHPF1_TS_DEWT_092015.nc | 27-Oct-2024 20:40 | 588085 | ||
| SHPF1_TS_DEWT_092016.nc | 27-Oct-2024 20:40 | 588170 | ||
| SHPF1_TS_DEWT_092017.nc | 27-Oct-2024 20:40 | 588125 | ||
| SHPF1_TS_DEWT_092018.nc | 27-Oct-2024 20:40 | 426568 | ||
| SHPF1_TS_DEWT_092019.nc | 27-Oct-2024 20:40 | 426103 | ||
| SHPF1_TS_DEWT_092020.nc | 27-Oct-2024 20:40 | 429366 | ||
| SHPF1_TS_DEWT_092021.nc | 27-Oct-2024 20:40 | 429443 | ||
| SHPF1_TS_DEWT_092022.nc | 27-Oct-2024 20:41 | 433649 | ||
| SHPF1_TS_DEWT_092023.nc | 27-Oct-2024 20:41 | 440141 | ||
| SHPF1_TS_DEWT_092024.nc | 09-Jan-2025 18:53 | 440204 | ||
| SHPF1_TS_DEWT_102004.nc | 27-Oct-2024 20:41 | 439426 | ||
| SHPF1_TS_DEWT_102005.nc | 27-Oct-2024 20:41 | 440085 | ||
| SHPF1_TS_DEWT_102006.nc | 27-Oct-2024 20:41 | 440016 | ||
| SHPF1_TS_DEWT_102008.nc | 27-Oct-2024 20:41 | 439973 | ||
| SHPF1_TS_DEWT_102009.nc | 27-Oct-2024 20:41 | 439765 | ||
| SHPF1_TS_DEWT_102010.nc | 27-Oct-2024 20:41 | 437484 | ||
| SHPF1_TS_DEWT_102012.nc | 27-Oct-2024 20:41 | 440061 | ||
| SHPF1_TS_DEWT_102013.nc | 27-Oct-2024 20:41 | 439728 | ||
| SHPF1_TS_DEWT_102014.nc | 27-Oct-2024 20:41 | 438798 | ||
| SHPF1_TS_DEWT_102015.nc | 27-Oct-2024 20:41 | 440138 | ||
| SHPF1_TS_DEWT_102016.nc | 27-Oct-2024 20:41 | 440151 | ||
| SHPF1_TS_DEWT_102017.nc | 27-Oct-2024 20:41 | 440267 | ||
| SHPF1_TS_DEWT_102018.nc | 27-Oct-2024 20:41 | 429799 | ||
| SHPF1_TS_DEWT_102019.nc | 27-Oct-2024 20:41 | 429496 | ||
| SHPF1_TS_DEWT_102020.nc | 27-Oct-2024 20:42 | 429829 | ||
| SHPF1_TS_DEWT_102021.nc | 27-Oct-2024 20:42 | 429834 | ||
| SHPF1_TS_DEWT_102022.nc | 27-Oct-2024 20:42 | 440151 | ||
| SHPF1_TS_DEWT_102023.nc | 27-Oct-2024 20:42 | 587815 | ||
| SHPF1_TS_DEWT_112004.nc | 27-Oct-2024 20:42 | 588176 | ||
| SHPF1_TS_DEWT_112005.nc | 27-Oct-2024 20:42 | 439548 | ||
| SHPF1_TS_DEWT_112006.nc | 27-Oct-2024 20:42 | 588011 | ||
| SHPF1_TS_DEWT_112008.nc | 27-Oct-2024 20:42 | 588151 | ||
| SHPF1_TS_DEWT_112009.nc | 27-Oct-2024 20:42 | 439879 | ||
| SHPF1_TS_DEWT_112010.nc | 27-Oct-2024 20:42 | 587983 | ||
| SHPF1_TS_DEWT_112011.nc | 27-Oct-2024 20:42 | 437712 | ||
| SHPF1_TS_DEWT_112012.nc | 27-Oct-2024 20:42 | 440045 | ||
| SHPF1_TS_DEWT_112013.nc | 27-Oct-2024 20:42 | 588132 | ||
| SHPF1_TS_DEWT_112014.nc | 27-Oct-2024 20:42 | 440347 | ||
| SHPF1_TS_DEWT_112015.nc | 27-Oct-2024 20:43 | 439820 | ||
| SHPF1_TS_DEWT_112016.nc | 27-Oct-2024 20:43 | 588132 | ||
| SHPF1_TS_DEWT_112017.nc | 27-Oct-2024 20:43 | 588212 | ||
| SHPF1_TS_DEWT_112018.nc | 27-Oct-2024 20:43 | 588112 | ||
| SHPF1_TS_DEWT_112019.nc | 27-Oct-2024 20:43 | 429451 | ||
| SHPF1_TS_DEWT_112020.nc | 27-Oct-2024 20:43 | 429419 | ||
| SHPF1_TS_DEWT_112021.nc | 27-Oct-2024 20:43 | 429456 | ||
| SHPF1_TS_DEWT_112022.nc | 27-Oct-2024 20:43 | 429469 | ||
| SHPF1_TS_DEWT_112023.nc | 27-Oct-2024 20:43 | 439302 | ||
| SHPF1_TS_DEWT_122004.nc | 27-Oct-2024 20:43 | 439732 | ||
| SHPF1_TS_DEWT_122005.nc | 27-Oct-2024 20:43 | 440032 | ||
| SHPF1_TS_DEWT_122006.nc | 27-Oct-2024 20:43 | 439670 | ||
| SHPF1_TS_DEWT_122008.nc | 27-Oct-2024 20:43 | 440052 | ||
| SHPF1_TS_DEWT_122009.nc | 27-Oct-2024 20:43 | 438483 | ||
| SHPF1_TS_DEWT_122010.nc | 27-Oct-2024 20:43 | 439990 | ||
| SHPF1_TS_DEWT_122011.nc | 27-Oct-2024 20:44 | 439487 | ||
| SHPF1_TS_DEWT_122012.nc | 27-Oct-2024 20:44 | 439590 | ||
| SHPF1_TS_DEWT_122014.nc | 27-Oct-2024 20:44 | 439975 | ||
| SHPF1_TS_DEWT_122015.nc | 27-Oct-2024 20:44 | 439653 | ||
| SHPF1_TS_DEWT_122016.nc | 27-Oct-2024 20:44 | 438793 | ||
| SHPF1_TS_DEWT_122018.nc | 27-Oct-2024 20:44 | 440167 | ||
| SHPF1_TS_DEWT_122019.nc | 27-Oct-2024 20:44 | 437152 | ||
| SHPF1_TS_DEWT_122020.nc | 27-Oct-2024 20:44 | 426548 | ||
| SHPF1_TS_DEWT_122021.nc | 27-Oct-2024 20:44 | 429694 | ||
| SHPF1_TS_DEWT_122022.nc | 27-Oct-2024 20:44 | 429492 | ||
| SHPF1_TS_DEWT_122023.nc | 27-Oct-2024 20:44 | 429832 | ||